Retour au catalogue

CZ-2C R/B

ActifSSO
NORAD 39203·ROCKET BODY·🇨🇳 China

Lancé Jul 15, 2013 depuis Jiuquan Satellite Launch Center

Loading…

Prochains Passages (prochaines 24 heures)

TLE

FraisSource: Space-Track

Époque: Sep 14, 2026, 20:36 UTC

1 39203U 13035B   26257.85848431  .00000143  00000-0  42110-4 0  9992
2 39203  98.2969 123.6895 0048677 219.2696 140.4968 14.56950639699355

Suivez CZ-2C R/B en temps réel avec AllMySat

Download on the App Store